Location: Joplin, MO
(37.0842°N, 94.5133°W)
Time: 21:28:16
(UTC+02:00)

Courier 1B Rocket - Pass Details

Date: 31 March 2023
Orbit: 920 x 1202 km, 28.2° (Epoch: 05 June)

Event Time Altitude Azimuth Distance (km) Brightness Sun altitude
Rises 03:31:29 0° 251° (WSW) 3,986 9.2 -11.2°
Reaches altitude 10° 03:34:31 10° 244° (WSW) 2,986 8.3 -11.8°
Maximum altitude 03:41:16 41° 178° (S) 1,507 5.9 -13.1°
Enters shadow 03:45:51 18° 118° (ESE) 2,269 6.3 -14.0°
Drops below altitude 10° 03:47:35 10° 110° (ESE) 2,791 - -14.3°
Sets 03:50:20 0° 103° (ESE) 3,701 - -14.8°
